{"data":{"norad_id":67856,"epoch":"2026-05-25T04:44:52.433376Z","epoch_age_seconds":58202,"freshness":"FRESH","line1":"1 67856U 26034G   26145.19782909  .00012518  00000+0  43391-3 0  9999","line2":"2 67856  53.1567 208.5872 0001136  84.7615 275.3515 15.30211256 15757","mean_motion":15.30211256,"eccentricity":0.0001136,"inclination_deg":53.1567,"raan_deg":208.5872,"arg_perigee_deg":84.7615,"mean_anomaly_deg":275.3515,"bstar":0.00043391,"rev_number":1575,"period_min":94.104653481911,"perigee_km":474.40292426105,"apogee_km":475.95999821544,"semimajor_km":6853.3184612382,"source":"CELESTRAK","updated_at":"2026-05-25T13:38:21.725863Z"}}